FLOCK 2EP-1

Last updated on Sun May 29 2016 17:36:37 GMT+0000 (Coordinated Universal Time)

1 41479U 98067HZ 16150.31888182 .00011947 00000-0 17756-3 0 9998 2 41479 51.6416 152.0853 0002104 244.8288 223.0185 15.55622162 1868

Satellite not in orbit